This demonstration page uses our WeatherBlox Daily Observations layout. Learn more.

Left ArrowRight Arrow

Hourly Observations for July 6, 2022

Temp ( °F °C ) Dew Point ( °F °C ) Humidity (%) Winds ( mph kmh ) Pressure ( in mb ) Visibility ( mi km ) Precip ( " mm )
12:15 am 00:15 Cloudy with Nearby Thunderstorms 77 24.8 75 23.8 94 94 NE 8 13 30.06 1018 10 16 0.00 0.00
12:35 am 00:35 Cloudy 77 24.8 74 23.5 93 93 NE 9 15 30.07 1018 10 16 0.00 0.00
12:55 am 00:55 Cloudy with Nearby Thunderstorms 76 24.5 73 22.8 90 90 NE 9 15 30.06 1018 10 16 0.00 0.00
1:15 am 01:15 Cloudy 76 24.3 73 22.6 90 90 NE 5 7 30.06 1018 10 16 0.00 0.00
1:35 am 01:35 Cloudy 76 24.2 72 22.4 90 90 SE 7 11 30.04 1017 10 16 0.00 0.00
1:55 am 01:55 Partly Cloudy 75 23.9 72 22.4 91 91 SSE 8 13 30.01 1016 10 16 0.00 0.00
2:15 am 02:15 Clear 75 23.8 73 22.6 93 93 SSE 7 11 30.00 1016 10 16 0.00 0.00
2:35 am 02:35 Clear 75 24 73 22.9 94 94 WSW 3 6 30.01 1016 10 16 0.00 0.00
2:55 am 02:55 Partly Cloudy with Nearby Thunderstorms 75 23.8 73 22.9 95 95 NNW 5 7 30.04 1017 10 16 0.00 0.00
3:15 am 03:15 Mostly Cloudy 75 23.9 73 23 95 95 NE 5 7 30.04 1017 10 16 0.00 0.00
3:35 am 03:35 Cloudy 75 24 73 22.9 94 94 E 7 11 30.03 1017 10 16 0.00 0.00
3:55 am 03:55 Cloudy 75 24.1 73 23 94 94 E 5 7 30.02 1017 10 16 0.00 0.00
4:15 am 04:15 Partly Cloudy 76 24.2 74 23.1 94 94 Calm 30.01 1016 10 16 0.00 0.00
4:35 am 04:35 Clear 75 23.9 74 23.1 95 95 N 6 9 30.02 1017 10 16 0.00 0.00
4:55 am 04:55 Clear 75 23.9 73 23 95 95 Calm 30.02 1017 10 16 0.00 0.00
5:15 am 05:15 Clear 75 23.7 73 22.9 95 95 S 7 11 30.01 1016 10 16 0.00 0.00
5:35 am 05:35 Clear 74 23.6 73 22.9 96 96 Calm 30.02 1017 10 16 0.00 0.00
5:55 am 05:55 Clear 74 23.6 73 23 96 96 WSW 5 7 30.01 1016 10 16 0.00 0.00
6:15 am 06:15 Clear 74 23.5 73 22.9 96 96 WSW 3 6 30.02 1017 7 11 0.00 0.00
6:35 am 06:35 Sunny 75 23.7 74 23.2 97 97 SW 6 9 30.02 1017 10 16 0.00 0.00
6:55 am 06:55 Sunny 75 24.1 74 23.4 96 96 S 6 9 30.02 1017 10 16 0.00 0.00
7:15 am 07:15 Sunny 76 24.3 74 23.5 95 95 S 5 7 30.02 1017 10 16 0.00 0.00
7:35 am 07:35 Sunny 76 24.7 74 23.6 94 94 SW 6 9 30.03 1017 10 16 0.00 0.00
7:55 am 07:55 Sunny 77 24.9 74 23.6 93 93 SW 5 7 30.03 1017 10 16 0.00 0.00
8:15 am 08:15 Sunny 77 25.1 75 23.8 93 93 SSW 6 9 30.04 1017 10 16 0.00 0.00
8:35 am 08:35 Sunny 79 26.1 75 24 88 88 SW 7 11 30.04 1017 10 16 0.00 0.00
8:55 am 08:55 Sunny 81 27 76 24.2 85 85 SW 6 9 30.03 1017 10 16 0.00 0.00
9:15 am 09:15 Sunny 80 26.5 76 24.2 87 87 SW 7 11 30.05 1017 10 16 0.00 0.00
9:35 am 09:35 Partly Cloudy 81 27.1 76 24.5 86 86 SW 7 11 30.04 1017 10 16 0.00 0.00
9:55 am 09:55 Partly Cloudy 82 27.8 76 24.5 82 82 SW 5 7 30.04 1017 10 16 0.00 0.00
10:15 am 10:15 Sunny 84 28.9 77 24.8 79 79 W 6 9 30.04 1017 10 16 0.00 0.00
10:35 am 10:35 Sunny 86 29.9 77 25.1 75 75 WSW 6 9 30.03 1017 10 16 0.00 0.00
10:55 am 10:55 Sunny 88 31 77 25.1 71 71 W 7 11 30.04 1017 10 16 0.00 0.00
11:15 am 11:15 Mostly Cloudy 89 31.7 76 24.4 65 65 W 7 11 30.04 1017 10 16 0.00 0.00
11:35 am 11:35 Mostly Cloudy 89 31.8 75 24 63 63 WNW 6 9 30.04 1017 10 16 0.00 0.00
11:55 am 11:55 Partly Cloudy 90 32.1 75 23.7 61 61 Calm 30.03 1017 10 16 0.00 0.00
12:15 pm 12:15 Partly Cloudy 91 32.7 76 24.3 61 61 SW 5 7 30.02 1017 10 16 0.00 0.00
12:35 pm 12:35 Mostly Cloudy 90 32.2 76 24.2 63 63 SW 8 13 30.03 1017 10 16 0.00 0.00
12:55 pm 12:55 Partly Cloudy 91 32.6 75 23.9 60 60 SW 6 9 30.01 1016 10 16 0.00 0.00
1:15 pm 13:15 Partly Cloudy 91 32.5 76 24.7 63 63 SW 7 11 30.01 1016 10 16 0.00 0.00
1:35 pm 13:35 Partly Cloudy 91 32.8 76 24.4 61 61 SSW 8 13 30.00 1016 10 16 0.00 0.00
1:55 pm 13:55 Partly Cloudy 92 33.6 74 23.6 56 56 S 7 11 29.98 1015 10 16 0.00 0.00
2:15 pm 14:15 Partly Cloudy 92 33.4 76 24.5 60 60 WSW 9 15 29.97 1015 10 16 0.00 0.00
2:35 pm 14:35 Partly Cloudy 93 33.9 76 24.2 57 57 SW 5 7 29.97 1015 10 16 0.00 0.00
2:55 pm 14:55 Partly Cloudy 93 34 76 24.5 58 58 SSW 8 13 29.96 1015 10 16 0.00 0.00
3:15 pm 15:15 Partly Cloudy 92 33.4 76 24.3 59 59 SSE 7 11 29.94 1014 10 16 0.00 0.00
3:35 pm 15:35 Mostly Cloudy 94 34.2 76 24.3 56 56 SW 9 15 29.94 1014 10 16 0.00 0.00
4:15 pm 16:15 Partly Cloudy 92 33.2 75 24 58 58 SW 7 11 29.93 1014 10 16 0.00 0.00
4:35 pm 16:35 Cloudy 88 31.2 79 25.9 73 73 SW 8 13 29.94 1014 10 16 0.01 0.25
4:55 pm 16:55 Cloudy 87 30.6 79 26 76 76 S 10 17 29.95 1014 7 11 0.01 0.25
5:15 pm 17:15 Cloudy with Strong Thunderstorms 80 26.5 75 24 86 86 ENE 10 17 29.97 1015 4 6 0.16 4.06
5:35 pm 17:35 Mostly Cloudy with Thunderstorms 82 27.6 78 25.3 87 87 SSE 6 9 29.95 1014 10 16 0.18 4.57
5:55 pm 17:55 Sunny with Nearby Thunderstorms 85 29.7 77 25.1 76 76 S 5 7 29.93 1014 10 16 0.18 4.57
6:15 pm 18:15 Sunny 86 29.9 78 25.7 78 78 SSE 8 13 29.93 1014 10 16 0.00 0.00
6:35 pm 18:35 Sunny with Thunderstorms 86 30.1 78 25.3 76 76 SSE 6 9 29.95 1014 10 16 0.00 0.00
6:55 pm 18:55 Sunny 86 29.9 77 25.2 76 76 WSW 8 13 29.95 1014 10 16 0.00 0.00
7:15 pm 19:15 Sunny 86 30 76 24.6 73 73 W 6 9 29.96 1015 10 16 0.00 0.00
7:35 pm 19:35 Sunny 85 29.4 73 22.5 66 66 WSW 8 13 29.96 1015 10 16 0.00 0.00
7:55 pm 19:55 Sunny 83 28.4 74 23.3 74 74 SW 5 7 29.96 1015 10 16 0.00 0.00
8:15 pm 20:15 Sunny 83 28.1 74 23.3 75 75 WSW 6 9 29.95 1014 10 16 0.00 0.00
8:35 pm 20:35 Sunny with Nearby Thunderstorms 81 27.4 74 23.3 78 78 NW 6 9 29.97 1015 10 16 0.00 0.00
8:55 pm 20:55 Partly Cloudy 81 27.1 74 23.2 79 79 N 6 9 29.98 1015 10 16 0.00 0.00
9:15 pm 21:15 Mostly Cloudy 81 27.2 73 22.8 77 77 N 3 6 29.99 1016 10 16 0.00 0.00
9:35 pm 21:35 Partly Cloudy 80 26.4 75 23.7 85 85 SE 3 6 30.00 1016 10 16 0.00 0.00
9:55 pm 21:55 Clear 79 26.3 75 23.8 86 86 Calm 29.99 1015 10 16 0.00 0.00
10:15 pm 22:15 Clear 79 26.1 76 24.3 90 90 Calm 30.00 1016 10 16 0.00 0.00
10:35 pm 22:35 Partly Cloudy with Nearby Thunderstorms 79 25.9 76 24.3 91 91 Calm 30.01 1016 10 16 0.00 0.00
10:55 pm 22:55 Partly Cloudy 79 26 75 24 89 89 WNW 3 6 30.01 1016 10 16 0.00 0.00
11:15 pm 23:15 Partly Cloudy 78 25.8 75 23.9 89 89 WSW 3 6 30.01 1016 10 16 0.00 0.00
11:35 pm 23:35 Clear 79 26.2 75 24 88 88 Calm 30.01 1016 10 16 0.00 0.00
11:55 pm 23:55 Clear 79 26.1 76 24.2 89 89 SE 3 6 30.00 1016 10 16 0.00 0.00

Powered by AerisWeather